| time (UTC) | temp F | wind direction | speed MPH | gust MPH | rain 1hr in | rain 24hr in | rain mn in | humidity % | barometer mb |
| 20260903121645 | 64 | 97 | 0.0 | 2.0 | 0.00 | 1.04 | 0.64 | 99 | 1018.8 |
| 20260903121504 | 63 | 82 | 1.0 | 2.0 | 0.00 | 1.04 | 0.64 | 99 | 1016.1 |
| 20260903120745 | 64 | 100 | 0.0 | 2.0 | 0.00 | 1.04 | 0.64 | 99 | 1018.7 |
| 20260903120107 | 63 | 100 | 0.0 | 3.0 | 0.00 | 1.04 | 0.64 | 99 | 1015.7 |
| 20260903115845 | 64 | 99 | 0.0 | 3.0 | 0.00 | 1.04 | 0.64 | 99 | 1018.3 |
| 20260903114945 | 64 | 0 | 0.0 | 0.0 | 0.00 | 1.04 | 0.64 | 99 | 1018.2 |
| 20260903114608 | 63 | 33 | 0.0 | 1.0 | 0.00 | 1.04 | 0.64 | 99 | 1015.4 |
| 20260903114045 | 64 | 120 | 0.0 | 3.0 | 0.00 | 1.04 | 0.64 | 99 | 1018.2 |
| 20260903113145 | 64 | 99 | 0.0 | 1.0 | 0.00 | 1.04 | 0.64 | 99 | 1018.2 |
| 20260903113002 | 63 | 89 | 0.0 | 1.0 | 0.00 | 1.04 | 0.64 | 99 | 1015.4 |
| 20260903112245 | 64 | 207 | 0.0 | 1.0 | 0.00 | 1.04 | 0.64 | 99 | 1018.0 |
| 20260903111626 | 63 | 194 | 0.0 | 1.0 | 0.00 | 1.04 | 0.64 | 99 | 1014.8 |
| 20260903111345 | 64 | 135 | 0.0 | 1.0 | 0.00 | 1.04 | 0.64 | 99 | 1017.6 |
| 20260903110445 | 64 | 208 | 0.0 | 1.0 | 0.00 | 1.04 | 0.64 | 99 | 1017.5 |
| 20260903110002 | 63 | 195 | 0.0 | 2.0 | 0.00 | 1.04 | 0.64 | 99 | 1014.8 |
| 20260903105545 | 64 | 144 | 0.0 | 2.0 | 0.00 | 1.04 | 0.64 | 99 | 1017.2 |
| 20260903104645 | 64 | 154 | 0.0 | 2.0 | 0.00 | 1.04 | 0.64 | 99 | 1017.0 |
| 20260903104632 | 63 | 111 | 0.0 | 2.0 | 0.00 | 1.04 | 0.64 | 99 | 1014.2 |
| 20260903103744 | 64 | 140 | 0.0 | 2.0 | 0.00 | 1.04 | 0.64 | 99 | 1017.1 |
| 20260903103003 | 63 | 207 | 0.0 | 1.0 | 0.00 | 1.04 | 0.64 | 99 | 1014.3 |
| 20260903102844 | 64 | 94 | 0.0 | 1.0 | 0.00 | 1.04 | 0.64 | 99 | 1017.0 |
| 20260903101945 | 64 | 0 | 0.0 | 0.0 | 0.00 | 1.04 | 0.64 | 99 | 1017.0 |
| 20260903101602 | 63 | 195 | 0.0 | 0.0 | 0.00 | 1.04 | 0.64 | 99 | 1014.2 |
| 20260903101045 | 64 | 0 | 0.0 | 0.0 | 0.00 | 1.04 | 0.64 | 99 | 1016.8 |
| 20260903100003 | 63 | 195 | 0.0 | 0.0 | 0.00 | 1.04 | 0.64 | 99 | 1014.0 |
| 20260903094609 | 63 | 195 | 0.0 | 1.0 | 0.02 | 1.04 | 0.64 | 99 | 1013.6 |
| 20260903093445 | 64 | 0 | 0.0 | 0.0 | 0.03 | 1.04 | 0.64 | 99 | 1016.5 |
| 20260903093003 | 64 | 195 | 0.0 | 1.0 | 0.04 | 1.04 | 0.64 | 99 | 1013.7 |
| 20260903092545 | 64 | 173 | 0.0 | 2.0 | 0.04 | 1.04 | 0.64 | 99 | 1016.6 |
| 20260903091645 | 64 | 168 | 0.0 | 2.0 | 0.04 | 1.04 | 0.64 | 99 | 1016.9 |
| 20260903091604 | 64 | 187 | 0.0 | 1.0 | 0.04 | 1.04 | 0.64 | 99 | 1014.1 |
| 20260903090744 | 64 | 175 | 0.0 | 2.0 | 0.04 | 1.04 | 0.64 | 99 | 1017.0 |
| 20260903090002 | 64 | 134 | 0.0 | 2.0 | 0.05 | 1.04 | 0.64 | 99 | 1014.6 |
| 20260903085844 | 64 | 102 | 1.0 | 3.0 | 0.05 | 1.04 | 0.64 | 99 | 1017.5 |
| 20260903084945 | 64 | 89 | 2.0 | 5.0 | 0.03 | 1.02 | 0.62 | 99 | 1018.1 |
| 20260903084602 | 64 | 70 | 1.0 | 4.0 | 0.04 | 1.02 | 0.62 | 99 | 1015.6 |
| 20260903084044 | 64 | 94 | 0.0 | 2.0 | 0.04 | 1.01 | 0.61 | 99 | 1018.7 |
| 20260903083145 | 64 | 98 | 0.0 | 1.0 | 0.04 | 1.00 | 0.60 | 99 | 1018.3 |
| 20260903083003 | 64 | 87 | 0.0 | 1.0 | 0.04 | 1.00 | 0.60 | 99 | 1015.3 |
| 20260903082244 | 64 | 172 | 0.0 | 2.0 | 0.04 | 1.00 | 0.60 | 99 | 1018.0 |
| 20260903081603 | 64 | 228 | 0.0 | 2.0 | 0.06 | 1.00 | 0.60 | 99 | 1015.4 |
| 20260903081345 | 64 | 194 | 0.0 | 2.0 | 0.07 | 1.00 | 0.60 | 99 | 1018.0 |
| 20260903080445 | 64 | 163 | 0.0 | 2.0 | 0.07 | 1.00 | 0.60 | 99 | 1017.1 |
| 20260903080002 | 64 | 218 | 0.0 | 2.0 | 0.07 | 0.99 | 0.59 | 99 | 1014.1 |
| 20260903075545 | 64 | 174 | 0.0 | 2.0 | 0.07 | 0.99 | 0.59 | 99 | 1016.6 |
| 20260903074644 | 64 | 172 | 1.0 | 2.0 | 0.06 | 0.98 | 0.58 | 99 | 1017.1 |
| 20260903074604 | 64 | 229 | 0.0 | 3.0 | 0.06 | 0.98 | 0.57 | 99 | 1014.3 |
| 20260903073744 | 64 | 166 | 0.0 | 4.0 | 0.05 | 0.97 | 0.57 | 99 | 1017.1 |
| 20260903073005 | 64 | 148 | 0.0 | 5.0 | 0.05 | 0.96 | 0.56 | 99 | 1014.3 |
| 20260903072844 | 65 | 165 | 1.0 | 5.0 | 0.05 | 0.96 | 0.56 | 99 | 1017.0 |
| 20260903071606 | 64 | 173 | 0.0 | 1.0 | 0.05 | 0.94 | 0.54 | 99 | 1015.2 |
| 20260903071045 | 65 | 130 | 0.0 | 3.0 | 0.05 | 0.93 | 0.53 | 99 | 1018.3 |
| 20260903070145 | 65 | 84 | 1.0 | 2.0 | 0.05 | 0.92 | 0.52 | 99 | 1018.8 |
| 20260903070002 | 64 | 79 | 0.0 | 2.0 | 0.05 | 0.92 | 0.52 | 99 | 1016.0 |
| 20260903065244 | 65 | 185 | 1.0 | 3.0 | 0.05 | 0.92 | 0.52 | 99 | 1019.0 |
| 20260903064603 | 64 | 169 | 0.0 | 3.0 | 0.05 | 0.92 | 0.52 | 99 | 1015.3 |
| 20260903064344 | 65 | 188 | 0.0 | 3.0 | 0.05 | 0.92 | 0.52 | 99 | 1018.1 |
| 20260903063445 | 65 | 120 | 0.0 | 1.0 | 0.05 | 0.92 | 0.52 | 99 | 1018.3 |
| 20260903063004 | 64 | 120 | 0.0 | 2.0 | 0.04 | 0.91 | 0.51 | 99 | 1015.7 |
| 20260903061644 | 65 | 93 | 1.0 | 2.0 | 0.02 | 0.89 | 0.49 | 99 | 1018.9 |
| 20260903061612 | 64 | 94 | 0.0 | 1.0 | 0.02 | 0.89 | 0.49 | 99 | 1016.1 |
| 20260903060744 | 64 | 98 | 0.0 | 2.0 | 0.00 | 0.87 | 0.48 | 99 | 1018.9 |
| 20260903060003 | 64 | 183 | 0.0 | 1.0 | 0.00 | 0.87 | 0.47 | 99 | 1015.6 |
| 20260903055844 | 64 | 179 | 0.0 | 1.0 | 0.00 | 0.87 | 0.47 | 99 | 1018.3 |
| 20260903054944 | 64 | 177 | 0.0 | 2.0 | 0.00 | 0.87 | 0.47 | 98 | 1017.9 |
| 20260903054602 | 64 | 193 | 0.0 | 2.0 | 0.00 | 0.87 | 0.47 | 98 | 1015.0 |
| 20260903054044 | 64 | 195 | 1.0 | 3.0 | 0.01 | 0.87 | 0.47 | 98 | 1017.9 |
| 20260903053145 | 64 | 201 | 0.0 | 2.0 | 0.01 | 0.87 | 0.47 | 98 | 1017.6 |
| 20260903053002 | 64 | 200 | 0.0 | 1.0 | 0.01 | 0.87 | 0.47 | 98 | 1014.8 |
| 20260903052244 | 64 | 199 | 0.0 | 3.0 | 0.08 | 0.87 | 0.47 | 98 | 1017.4 |
| 20260903051602 | 64 | 200 | 0.0 | 3.0 | 0.20 | 0.87 | 0.47 | 98 | 1014.9 |
| 20260903051345 | 64 | 188 | 0.0 | 3.0 | 0.38 | 0.87 | 0.47 | 98 | 1017.8 |
| 20260903050444 | 64 | 182 | 1.0 | 4.0 | 0.47 | 0.87 | 0.47 | 98 | 1018.0 |
| 20260903050002 | 64 | 198 | 0.0 | 2.0 | 0.47 | 0.87 | 0.47 | 98 | 1014.8 |
| 20260903045544 | 64 | 213 | 0.0 | 5.0 | 0.47 | 0.87 | 0.47 | 98 | 1017.4 |
| 20260903044649 | 65 | 179 | 0.0 | 2.0 | 0.47 | 0.87 | 0.47 | 98 | 1017.3 |
| 20260903044608 | 64 | 158 | 0.0 | 2.0 | 0.47 | 0.87 | 0.47 | 98 | 1014.5 |
| 20260903043002 | 64 | 85 | 1.0 | 7.0 | 0.46 | 0.86 | 0.46 | 98 | 1015.3 |
| 20260903042845 | 65 | 20 | 2.0 | 8.0 | 0.45 | 0.84 | 0.45 | 98 | 1018.2 |
| 20260903041948 | 64 | 330 | 4.0 | 8.0 | 0.40 | 0.76 | 0.37 | 98 | 1018.7 |
| 20260903041617 | 64 | 330 | 5.0 | 10.0 | 0.27 | 0.63 | 0.23 | 98 | 1016.3 |
| 20260903041045 | 65 | 339 | 4.0 | 9.0 | 0.09 | 0.45 | 0.06 | 98 | 1019.7 |
| 20260903040144 | 65 | 311 | 2.0 | 4.0 | 0.04 | 0.40 | 0.00 | 98 | 1019.3 |
| 20260903040003 | 64 | 233 | 0.0 | 4.0 | 0.04 | 0.40 | 0.00 | 98 | 1016.3 |
| 20260903035245 | 65 | 334 | 0.0 | 3.0 | 0.04 | 0.40 | 0.40 | 98 | 1018.5 |
| 20260903034603 | 65 | 313 | 0.0 | 0.0 | 0.04 | 0.40 | 0.40 | 98 | 1015.3 |
| 20260903034344 | 65 | 0 | 0.0 | 0.0 | 0.04 | 0.40 | 0.40 | 98 | 1018.2 |
| 20260903033002 | 65 | 313 | 0.0 | 3.0 | 0.03 | 0.39 | 0.39 | 98 | 1016.0 |
| 20260903032544 | 66 | 192 | 1.0 | 2.0 | 0.01 | 0.37 | 0.38 | 98 | 1018.8 |
| 20260903031644 | 66 | 181 | 0.0 | 1.0 | 0.00 | 0.36 | 0.36 | 98 | 1018.8 |
| 20260903031619 | 65 | 181 | 0.0 | 0.0 | 0.00 | 0.36 | 0.36 | 98 | 1016.0 |
| 20260903030003 | 65 | 181 | 0.0 | 0.0 | 0.00 | 0.36 | 0.36 | 97 | 1015.8 |
| 20260903025844 | 66 | 0 | 0.0 | 0.0 | 0.00 | 0.36 | 0.36 | 97 | 1018.9 |
| 20260903024602 | 66 | 181 | 0.0 | 1.0 | 0.00 | 0.36 | 0.36 | 97 | 1016.0 |
| 20260903024044 | 66 | 0 | 0.0 | 0.0 | 0.01 | 0.36 | 0.36 | 97 | 1018.7 |
| 20260903023144 | 66 | 176 | 0.0 | 1.0 | 0.01 | 0.36 | 0.36 | 96 | 1019.0 |
| 20260903023002 | 66 | 177 | 0.0 | 1.0 | 0.01 | 0.36 | 0.36 | 96 | 1016.0 |
| 20260903021602 | 66 | 174 | 0.0 | 2.0 | 0.01 | 0.36 | 0.36 | 94 | 1015.2 |
| 20260903020444 | 68 | 339 | 2.0 | 7.0 | 0.01 | 0.36 | 0.36 | 93 | 1017.4 |
| 20260903020002 | 68 | 323 | 2.0 | 9.0 | 0.01 | 0.36 | 0.36 | 92 | 1014.6 |
| 20260903014644 | 70 | 334 | 3.0 | 12.0 | 0.01 | 0.36 | 0.36 | 96 | 1018.5 |
| 20260903014611 | 70 | 242 | 5.0 | 12.0 | 0.01 | 0.36 | 0.36 | 96 | 1015.4 |
| 20260903013744 | 71 | 0 | 0.0 | 0.0 | 0.00 | 0.35 | 0.35 | 98 | 1018.2 |
| 20260903013003 | 71 | 163 | 0.0 | 2.0 | 0.00 | 0.35 | 0.35 | 98 | 1015.3 |
| 20260903012844 | 71 | 122 | 0.0 | 2.0 | 0.00 | 0.35 | 0.35 | 98 | 1018.5 |
| 20260903011944 | 71 | 206 | 1.0 | 7.0 | 0.04 | 0.35 | 0.35 | 98 | 1018.6 |
| 20260903011614 | 70 | 232 | 0.0 | 7.0 | 0.04 | 0.35 | 0.35 | 98 | 1015.6 |
| 20260903011044 | 70 | 192 | 0.0 | 2.0 | 0.04 | 0.35 | 0.35 | 98 | 1018.1 |
| 20260903010144 | 70 | 0 | 0.0 | 0.0 | 0.04 | 0.35 | 0.35 | 97 | 1017.9 |
| 20260903010003 | 70 | 166 | 0.0 | 1.0 | 0.04 | 0.35 | 0.35 | 97 | 1014.7 |
| 20260903005244 | 70 | 0 | 0.0 | 0.0 | 0.04 | 0.35 | 0.35 | 96 | 1017.4 |
| 20260903004602 | 70 | 167 | 0.0 | 1.0 | 0.04 | 0.35 | 0.35 | 96 | 1014.3 |
| 20260903004344 | 71 | 166 | 0.0 | 1.0 | 0.04 | 0.35 | 0.35 | 95 | 1017.5 |
| 20260903003003 | 72 | 163 | 0.0 | 6.0 | 0.04 | 0.35 | 0.35 | 97 | 1014.5 |
| 20260903001602 | 72 | 156 | 1.0 | 4.0 | 0.00 | 0.31 | 0.31 | 97 | 1013.0 |
| 20260903000004 | 73 | 228 | 0.0 | 2.0 | 0.00 | 0.31 | 0.31 | 96 | 1013.5 |
| 20260902235844 | 73 | 198 | 0.0 | 1.0 | 0.00 | 0.31 | 0.31 | 96 | 1016.9 |
| 20260902234944 | 74 | 167 | 0.0 | 2.0 | 0.00 | 0.31 | 0.31 | 96 | 1017.6 |
| 20260902234602 | 73 | 150 | 0.0 | 1.0 | 0.00 | 0.31 | 0.31 | 96 | 1014.5 |
| 20260902234044 | 74 | 189 | 0.0 | 2.0 | 0.00 | 0.31 | 0.31 | 95 | 1017.8 |
| 20260902233005 | 74 | 196 | 0.0 | 2.0 | 0.00 | 0.31 | 0.31 | 95 | 1014.5 |
| 20260902232244 | 74 | 150 | 0.0 | 1.0 | 0.00 | 0.31 | 0.31 | 95 | 1017.8 |
| 20260902231612 | 74 | 153 | 0.0 | 2.0 | 0.00 | 0.31 | 0.31 | 95 | 1014.7 |
| 20260902231344 | 74 | 142 | 0.0 | 2.0 | 0.00 | 0.31 | 0.31 | 95 | 1017.9 |
| 20260902230444 | 75 | 187 | 0.0 | 5.0 | 0.00 | 0.31 | 0.31 | 94 | 1017.7 |
| 20260902230002 | 74 | 151 | 0.0 | 2.0 | 0.00 | 0.31 | 0.31 | 94 | 1014.2 |
| 20260902225544 | 75 | 166 | 0.0 | 2.0 | 0.00 | 0.31 | 0.31 | 94 | 1017.4 |
| 20260902224644 | 75 | 194 | 0.0 | 3.0 | 0.00 | 0.31 | 0.31 | 93 | 1017.1 |
| 20260902224607 | 75 | 167 | 0.0 | 3.0 | 0.00 | 0.31 | 0.31 | 93 | 1013.9 |
| 20260902223744 | 75 | 179 | 0.0 | 2.0 | 0.00 | 0.31 | 0.31 | 93 | 1017.1 |
| 20260902223004 | 75 | 156 | 0.0 | 2.0 | 0.00 | 0.31 | 0.31 | 92 | 1013.9 |
| 20260902222844 | 76 | 181 | 1.0 | 2.0 | 0.00 | 0.31 | 0.31 | 92 | 1017.3 |
| 20260902221944 | 76 | 184 | 1.0 | 3.0 | 0.00 | 0.31 | 0.31 | 91 | 1017.4 |
| 20260902221627 | 76 | 163 | 0.0 | 3.0 | 0.00 | 0.31 | 0.31 | 91 | 1014.1 |
| 20260902221044 | 77 | 170 | 0.0 | 2.0 | 0.00 | 0.31 | 0.31 | 91 | 1017.4 |
| 20260902220002 | 78 | 167 | 1.0 | 4.0 | 0.00 | 0.31 | 0.31 | 89 | 1014.3 |
| 20260902215244 | 79 | 158 | 0.0 | 1.0 | 0.00 | 0.31 | 0.31 | 88 | 1017.7 |
| 20260902214603 | 79 | 150 | 0.0 | 1.0 | 0.00 | 0.31 | 0.31 | 87 | 1014.5 |
| 20260902213447 | 80 | 197 | 0.0 | 2.0 | 0.00 | 0.31 | 0.31 | 86 | 1017.7 |
| 20260902213004 | 79 | 201 | 0.0 | 2.0 | 0.00 | 0.31 | 0.31 | 86 | 1014.4 |
| 20260902212544 | 80 | 197 | 0.0 | 2.0 | 0.00 | 0.31 | 0.31 | 85 | 1017.9 |
| 20260902211602 | 80 | 148 | 0.0 | 1.0 | 0.01 | 0.31 | 0.31 | 84 | 1014.7 |
| 20260902210744 | 80 | 168 | 0.0 | 2.0 | 0.01 | 0.31 | 0.31 | 85 | 1018.1 |
| 20260902210007 | 79 | 169 | 0.0 | 3.0 | 0.01 | 0.31 | 0.31 | 86 | 1014.8 |
| 20260902205844 | 79 | 199 | 0.0 | 2.0 | 0.01 | 0.31 | 0.31 | 86 | 1018.2 |
| 20260902204944 | 79 | 198 | 0.0 | 2.0 | 0.01 | 0.31 | 0.31 | 86 | 1018.2 |
| 20260902204602 | 79 | 194 | 0.0 | 3.0 | 0.01 | 0.31 | 0.31 | 86 | 1015.1 |
| 20260902203144 | 79 | 208 | 0.0 | 1.0 | 0.01 | 0.31 | 0.31 | 87 | 1018.5 |
| 20260902203002 | 79 | 195 | 0.0 | 1.0 | 0.01 | 0.31 | 0.31 | 88 | 1015.2 |
| 20260902202244 | 78 | 155 | 0.0 | 1.0 | 0.01 | 0.31 | 0.31 | 87 | 1018.5 |
| 20260902201609 | 78 | 155 | 0.0 | 1.0 | 0.00 | 0.30 | 0.30 | 86 | 1015.6 |
| 20260902200444 | 79 | 129 | 0.0 | 2.0 | 0.00 | 0.30 | 0.30 | 87 | 1018.7 |
| 20260902200002 | 78 | 114 | 0.0 | 2.0 | 0.00 | 0.30 | 0.30 | 87 | 1015.4 |
| 20260902195544 | 79 | 170 | 0.0 | 3.0 | 0.00 | 0.30 | 0.30 | 86 | 1018.8 |
| 20260902194644 | 79 | 149 | 0.0 | 3.0 | 0.00 | 0.30 | 0.30 | 87 | 1018.8 |
| 20260902194603 | 78 | 155 | 0.0 | 3.0 | 0.00 | 0.30 | 0.30 | 87 | 1015.5 |
| 20260902193004 | 76 | 67 | 0.0 | 3.0 | 0.00 | 0.30 | 0.30 | 89 | 1015.4 |
| 20260902192844 | 77 | 181 | 0.0 | 3.0 | 0.00 | 0.30 | 0.30 | 90 | 1018.8 |
| 20260902191944 | 75 | 0 | 0.0 | 0.0 | 0.00 | 0.30 | 0.30 | 92 | 1019.0 |
| 20260902191634 | 75 | 130 | 0.0 | 1.0 | 0.00 | 0.30 | 0.30 | 93 | 1015.7 |
| 20260902191044 | 75 | 147 | 0.0 | 1.0 | 0.00 | 0.30 | 0.30 | 93 | 1019.1 |
| 20260902190145 | 74 | 0 | 0.0 | 0.0 | 0.00 | 0.30 | 0.30 | 94 | 1019.2 |
| 20260902190004 | 74 | 149 | 0.0 | 1.0 | 0.00 | 0.30 | 0.30 | 93 | 1015.9 |
| 20260902185244 | 73 | 149 | 0.0 | 1.0 | 0.00 | 0.30 | 0.30 | 94 | 1019.2 |
| 20260902184603 | 73 | 47 | 0.0 | 0.0 | 0.00 | 0.30 | 0.30 | 94 | 1016.3 |
| 20260902184344 | 73 | 0 | 0.0 | 0.0 | 0.01 | 0.30 | 0.30 | 95 | 1019.4 |
| 20260902183444 | 72 | 38 | 0.0 | 2.0 | 0.07 | 0.30 | 0.30 | 95 | 1019.5 |
| 20260902183005 | 72 | 47 | 0.0 | 2.0 | 0.08 | 0.30 | 0.30 | 95 | 1016.4 |
| 20260902182544 | 72 | 138 | 0.0 | 2.0 | 0.08 | 0.30 | 0.30 | 96 | 1019.6 |
| 20260902181644 | 71 | 166 | 0.0 | 1.0 | 0.13 | 0.30 | 0.30 | 98 | 1019.5 |
| 20260902181612 | 71 | 167 | 0.0 | 1.0 | 0.13 | 0.30 | 0.30 | 98 | 1016.3 |
| 20260902180006 | 70 | 126 | 0.0 | 1.0 | 0.13 | 0.30 | 0.30 | 98 | 1016.1 |
| 20260902175844 | 70 | 176 | 0.0 | 1.0 | 0.13 | 0.30 | 0.30 | 98 | 1019.4 |
| 20260902174609 | 69 | 212 | 0.0 | 3.0 | 0.13 | 0.30 | 0.30 | 97 | 1015.9 |
| 20260902174044 | 70 | 60 | 1.0 | 2.0 | 0.09 | 0.26 | 0.27 | 97 | 1019.7 |
| 20260902173144 | 70 | 68 | 1.0 | 2.0 | 0.05 | 0.22 | 0.22 | 97 | 1020.1 |
| 20260902173003 | 69 | 322 | 0.0 | 2.0 | 0.05 | 0.22 | 0.22 | 97 | 1016.6 |
| 20260902172244 | 70 | 51 | 1.0 | 3.0 | 0.03 | 0.19 | 0.20 | 96 | 1019.7 |
| 20260902171617 | 70 | 75 | 0.0 | 3.0 | 0.01 | 0.17 | 0.17 | 97 | 1016.2 |
| 20260902171344 | 70 | 85 | 0.0 | 2.0 | 0.01 | 0.17 | 0.17 | 97 | 1019.4 |
| 20260902170444 | 71 | 188 | 0.0 | 2.0 | 0.01 | 0.17 | 0.17 | 97 | 1018.9 |
| 20260902170002 | 70 | 191 | 0.0 | 2.0 | 0.01 | 0.17 | 0.17 | 97 | 1015.6 |
| 20260902165544 | 71 | 183 | 0.0 | 2.0 | 0.01 | 0.17 | 0.17 | 97 | 1019.0 |
| 20260902164606 | 70 | 176 | 0.0 | 2.0 | 0.01 | 0.17 | 0.17 | 97 | 1015.7 |
| 20260902163744 | 71 | 161 | 0.0 | 2.0 | 0.01 | 0.17 | 0.17 | 97 | 1019.2 |
| 20260902163003 | 70 | 113 | 0.0 | 2.0 | 0.01 | 0.17 | 0.17 | 97 | 1016.1 |
| 20260902162844 | 71 | 179 | 1.0 | 2.0 | 0.01 | 0.17 | 0.17 | 97 | 1019.6 |
| 20260902161944 | 71 | 174 | 0.0 | 2.0 | 0.00 | 0.16 | 0.16 | 98 | 1019.7 |
| 20260902160145 | 71 | 167 | 0.0 | 2.0 | 0.00 | 0.16 | 0.16 | 99 | 1020.2 |
| 20260902160002 | 70 | 156 | 0.0 | 2.0 | 0.00 | 0.16 | 0.16 | 99 | 1016.9 |
| 20260902155244 | 71 | 198 | 0.0 | 2.0 | 0.00 | 0.16 | 0.16 | 99 | 1020.3 |
| 20260902154602 | 70 | 224 | 0.0 | 1.0 | 0.00 | 0.16 | 0.16 | 99 | 1017.0 |
| 20260902154344 | 70 | 146 | 0.0 | 1.0 | 0.00 | 0.16 | 0.16 | 99 | 1020.3 |
| 20260902153444 | 70 | 170 | 0.0 | 3.0 | 0.00 | 0.16 | 0.16 | 99 | 1020.4 |
| 20260902153006 | 69 | 179 | 0.0 | 3.0 | 0.00 | 0.16 | 0.16 | 99 | 1016.9 |
| 20260902152544 | 69 | 179 | 1.0 | 3.0 | 0.00 | 0.16 | 0.16 | 99 | 1020.3 |
| 20260902151644 | 69 | 200 | 0.0 | 2.0 | 0.00 | 0.16 | 0.16 | 99 | 1020.1 |
| 20260902151602 | 68 | 200 | 0.0 | 2.0 | 0.00 | 0.16 | 0.16 | 99 | 1016.7 |
| 20260902150744 | 68 | 3 | 0.0 | 2.0 | 0.00 | 0.16 | 0.16 | 99 | 1019.9 |
| 20260902150003 | 68 | 6 | 0.0 | 1.0 | 0.01 | 0.16 | 0.16 | 99 | 1016.6 |
| 20260902145844 | 68 | 6 | 0.0 | 1.0 | 0.01 | 0.16 | 0.16 | 99 | 1020.0 |
| 20260902144944 | 68 | 0 | 0.0 | 0.0 | 0.02 | 0.16 | 0.16 | 99 | 1020.3 |
| 20260902144604 | 68 | 8 | 0.0 | 0.0 | 0.03 | 0.16 | 0.16 | 99 | 1017.2 |
| 20260902144044 | 68 | 0 | 0.0 | 0.0 | 0.05 | 0.16 | 0.16 | 99 | 1020.6 |
| 20260902143003 | 67 | 8 | 0.0 | 0.0 | 0.08 | 0.16 | 0.16 | 99 | 1017.3 |
| 20260902142244 | 68 | 0 | 0.0 | 0.0 | 0.10 | 0.16 | 0.16 | 99 | 1020.5 |
| 20260902141603 | 67 | 8 | 0.0 | 0.0 | 0.11 | 0.16 | 0.16 | 99 | 1017.1 |
| 20260902140444 | 68 | 9 | 0.0 | 1.0 | 0.13 | 0.16 | 0.16 | 99 | 1020.3 |
| 20260902140003 | 67 | 8 | 0.0 | 1.0 | 0.12 | 0.15 | 0.15 | 99 | 1017.1 |
| 20260902134644 | 67 | 0 | 0.0 | 0.0 | 0.12 | 0.13 | 0.13 | 99 | 1019.8 |
| 20260902134506 | 67 | 8 | 0.0 | 0.0 | 0.12 | 0.13 | 0.13 | 99 | 1016.7 |
| 20260902133744 | 67 | 25 | 0.0 | 2.0 | 0.10 | 0.10 | 0.11 | 99 | 1020.3 |
| 20260902133108 | 67 | 81 | 0.0 | 0.0 | 0.08 | 0.08 | 0.08 | 99 | 1017.4 |
| 20260902132844 | 67 | 0 | 0.0 | 0.0 | 0.07 | 0.07 | 0.07 | 99 | 1020.7 |
| 20260902131043 | 67 | 0 | 0.0 | 0.0 | 0.04 | 0.04 | 0.04 | 99 | 1020.2 |
| 20260902125244 | 67 | 0 | 0.0 | 0.0 | 0.02 | 0.02 | 0.02 | 99 | 1020.4 |
| 20260902124506 | 67 | 80 | 0.0 | 0.0 | 0.01 | 0.01 | 0.01 | 99 | 1017.1 |
| 20260902124344 | 67 | 0 | 0.0 | 0.0 | 0.01 | 0.01 | 0.01 | 99 | 1020.3 |
| 20260902123444 | 67 | 0 | 0.0 | 0.0 | 0.00 | 0.00 | 0.00 | 99 | 1020.0 |
| 20260902123107 | 67 | 81 | 0.0 | 1.0 | 0.00 | 0.00 | 0.00 | 99 | 1016.5 |
| 20260902122543 | 67 | 81 | 0.0 | 1.0 | 0.00 | 0.00 | 0.00 | 99 | 1019.6 |